| time (UTC) | temp C | wind direction | speed KPH | gust KPH | rain 1hr cm | rain 24hr cm | rain mn cm | humidity % | barometer mb |
| 20260507192551 | 11 | 13 | 8.0 | 19.3 | 0.00 | 0.28 | 0.00 | 47 | 1007.3 |
| 20260507192052 | 11 | 274 | 11.3 | 25.7 | 0.00 | 0.28 | 0.00 | 48 | 1007.4 |
| 20260507191551 | 11 | 20 | 11.3 | 25.7 | 0.00 | 0.30 | 0.00 | 47 | 1007.4 |
| 20260507190551 | 11 | 277 | 11.3 | 22.5 | 0.00 | 0.30 | 0.00 | 44 | 1007.4 |
| 20260507190052 | 11 | 310 | 12.9 | 25.7 | 0.00 | 0.33 | 0.00 | 45 | 1007.4 |
| 20260507185548 | 11 | 11 | 11.3 | 25.7 | 0.00 | 0.33 | 0.00 | 45 | 1007.4 |
| 20260507184047 | 10 | 1 | 9.7 | 20.9 | 0.00 | 0.38 | 0.00 | 48 | 1007.6 |
| 20260507183048 | 11 | 331 | 9.7 | 29.0 | 0.00 | 0.38 | 0.00 | 45 | 1007.4 |
| 20260507182547 | 11 | 343 | 8.0 | 27.4 | 0.00 | 0.38 | 0.00 | 46 | 1007.6 |
| 20260507182048 | 11 | 347 | 8.0 | 25.7 | 0.00 | 0.41 | 0.00 | 44 | 1007.6 |
| 20260507181548 | 11 | 4 | 9.7 | 20.9 | 0.00 | 0.41 | 0.00 | 46 | 1007.5 |
| 20260507181043 | 10 | 309 | 11.3 | 20.9 | 0.00 | 0.41 | 0.00 | 48 | 1007.5 |
| 20260507180543 | 10 | 321 | 11.3 | 27.4 | 0.00 | 0.41 | 0.00 | 48 | 1007.6 |
| 20260507175543 | 10 | 322 | 9.7 | 24.1 | 0.00 | 0.43 | 0.00 | 48 | 1007.4 |
| 20260507175043 | 10 | 3 | 9.7 | 24.1 | 0.00 | 0.43 | 0.00 | 46 | 1007.5 |
| 20260507174548 | 10 | 304 | 9.7 | 22.5 | 0.00 | 0.43 | 0.00 | 46 | 1007.6 |
| 20260507174047 | 10 | 17 | 9.7 | 22.5 | 0.00 | 0.46 | 0.00 | 47 | 1007.5 |
| 20260507173547 | 11 | 347 | 9.7 | 25.7 | 0.00 | 0.46 | 0.00 | 49 | 1007.4 |
| 20260507173047 | 11 | 305 | 11.3 | 25.7 | 0.00 | 0.48 | 0.00 | 46 | 1007.5 |
| 20260507172043 | 11 | 320 | 12.9 | 30.6 | 0.00 | 0.53 | 0.00 | 47 | 1007.6 |
| 20260507171543 | 10 | 27 | 12.9 | 32.2 | 0.00 | 0.56 | 0.00 | 50 | 1007.5 |
| 20260507171039 | 10 | 4 | 14.5 | 37.0 | 0.00 | 0.56 | 0.00 | 47 | 1007.6 |
| 20260507170539 | 10 | 240 | 17.7 | 37.0 | 0.00 | 0.56 | 0.00 | 47 | 1007.8 |
| 20260507170039 | 10 | 328 | 14.5 | 41.8 | 0.00 | 0.58 | 0.00 | 48 | 1007.8 |
| 20260507165039 | 10 | 303 | 12.9 | 29.0 | 0.00 | 0.64 | 0.00 | 49 | 1007.8 |
| 20260507164539 | 10 | 239 | 12.9 | 32.2 | 0.00 | 0.66 | 0.00 | 48 | 1007.9 |
| 20260507164036 | 10 | 13 | 11.3 | 32.2 | 0.00 | 0.66 | 0.00 | 50 | 1007.7 |
| 20260507163035 | 10 | 275 | 12.9 | 32.2 | 0.00 | 0.71 | 0.00 | 51 | 1008.1 |
| 20260507162536 | 10 | 263 | 12.9 | 32.2 | 0.00 | 0.74 | 0.00 | 48 | 1008.1 |
| 20260507162035 | 10 | 318 | 12.9 | 27.4 | 0.00 | 0.76 | 0.00 | 51 | 1008.2 |
| 20260507161536 | 10 | 241 | 11.3 | 27.4 | 0.00 | 0.79 | 0.00 | 52 | 1008.1 |
| 20260507161035 | 9 | 359 | 12.9 | 32.2 | 0.00 | 0.81 | 0.00 | 55 | 1008.3 |
| 20260507160536 | 9 | 307 | 11.3 | 32.2 | 0.00 | 0.86 | 0.00 | 52 | 1008.4 |
| 20260507160036 | 9 | 224 | 9.7 | 24.1 | 0.00 | 0.91 | 0.00 | 55 | 1008.5 |
| 20260507155532 | 9 | 282 | 11.3 | 30.6 | 0.00 | 0.94 | 0.00 | 56 | 1008.5 |
| 20260507154531 | 9 | 335 | 9.7 | 27.4 | 0.00 | 0.99 | 0.00 | 51 | 1008.4 |
| 20260507154031 | 9 | 236 | 9.7 | 22.5 | 0.00 | 1.04 | 0.00 | 56 | 1008.5 |
| 20260507153532 | 8 | 294 | 11.3 | 20.9 | 0.00 | 1.07 | 0.00 | 55 | 1008.6 |
| 20260507153031 | 8 | 311 | 9.7 | 22.5 | 0.00 | 1.09 | 0.00 | 55 | 1008.6 |
| 20260507151532 | 8 | 309 | 12.9 | 32.2 | 0.00 | 1.14 | 0.00 | 59 | 1008.8 |
| 20260507151027 | 8 | 308 | 11.3 | 32.2 | 0.00 | 1.19 | 0.00 | 58 | 1008.8 |
| 20260507145527 | 8 | 293 | 6.4 | 17.7 | 0.00 | 1.24 | 0.00 | 63 | 1008.6 |
| 20260507145027 | 8 | 315 | 6.4 | 17.7 | 0.00 | 1.27 | 0.00 | 67 | 1008.6 |
| 20260507144527 | 8 | 354 | 6.4 | 20.9 | 0.00 | 1.27 | 0.00 | 62 | 1008.7 |
| 20260507144027 | 8 | 345 | 6.4 | 20.9 | 0.00 | 1.30 | 0.00 | 65 | 1008.7 |
| 20260507143528 | 8 | 310 | 9.7 | 29.0 | 0.00 | 1.32 | 0.00 | 67 | 1008.8 |
| 20260507143028 | 8 | 4 | 12.9 | 30.6 | 0.00 | 1.35 | 0.00 | 64 | 1008.8 |
| 20260507142527 | 7 | 319 | 12.9 | 30.6 | 0.00 | 1.35 | 0.00 | 67 | 1008.9 |
| 20260507142028 | 7 | 310 | 12.9 | 33.8 | 0.00 | 1.35 | 0.00 | 64 | 1008.8 |
| 20260507141527 | 7 | 276 | 14.5 | 33.8 | 0.00 | 1.37 | 0.00 | 68 | 1009.0 |
| 20260507140527 | 7 | 305 | 9.7 | 16.1 | 0.00 | 1.40 | 0.00 | 65 | 1008.9 |
| 20260507140028 | 7 | 315 | 9.7 | 19.3 | 0.00 | 1.40 | 0.00 | 67 | 1009.0 |
| 20260507135527 | 7 | 269 | 8.0 | 19.3 | 0.00 | 1.42 | 0.00 | 67 | 1009.0 |
| 20260507135028 | 7 | 248 | 8.0 | 25.7 | 0.00 | 1.42 | 0.00 | 71 | 1009.1 |
| 20260507134527 | 7 | 302 | 9.7 | 25.7 | 0.00 | 1.42 | 0.00 | 70 | 1008.9 |
| 20260507133027 | 7 | 264 | 8.0 | 19.3 | 0.00 | 1.42 | 0.00 | 69 | 1008.9 |
| 20260507132526 | 7 | 329 | 6.4 | 27.4 | 0.00 | 1.42 | 0.00 | 70 | 1008.9 |
| 20260507132025 | 7 | 328 | 8.0 | 27.4 | 0.00 | 1.42 | 0.00 | 70 | 1008.8 |
| 20260507131525 | 7 | 335 | 9.7 | 27.4 | 0.00 | 1.42 | 0.00 | 73 | 1008.7 |
| 20260507131026 | 7 | 359 | 8.0 | 27.4 | 0.00 | 1.45 | 0.00 | 73 | 1008.8 |
| 20260507130525 | 7 | 262 | 8.0 | 22.5 | 0.00 | 1.45 | 0.00 | 76 | 1008.8 |
| 20260507130026 | 6 | 330 | 9.7 | 22.5 | 0.00 | 1.45 | 0.00 | 73 | 1008.8 |
| 20260507125528 | 6 | 25 | 8.0 | 22.5 | 0.00 | 1.47 | 0.00 | 75 | 1008.8 |
| 20260507125022 | 6 | 279 | 4.8 | 14.5 | 0.00 | 1.47 | 0.00 | 81 | 1008.7 |
| 20260507124516 | 6 | 309 | 4.8 | 20.9 | 0.00 | 1.47 | 0.00 | 79 | 1008.7 |
| 20260507124010 | 6 | 293 | 8.0 | 20.9 | 0.00 | 1.50 | 0.00 | 78 | 1008.8 |
| 20260507123503 | 6 | 296 | 8.0 | 20.9 | 0.00 | 1.50 | 0.00 | 78 | 1008.8 |
| 20260507122959 | 6 | 310 | 6.4 | 20.9 | 0.00 | 1.52 | 0.00 | 80 | 1008.8 |
| 20260507122457 | 7 | 332 | 4.8 | 14.5 | 0.00 | 1.55 | 0.00 | 83 | 1008.8 |
| 20260507121957 | 6 | 283 | 6.4 | 16.1 | 0.00 | 1.55 | 0.00 | 81 | 1008.8 |
| 20260507121457 | 6 | 216 | 3.2 | 16.1 | 0.00 | 1.57 | 0.00 | 82 | 1008.7 |
| 20260507120957 | 6 | 288 | 3.2 | 8.0 | 0.00 | 1.57 | 0.00 | 88 | 1008.7 |
| 20260507120457 | 6 | 234 | 4.8 | 12.9 | 0.00 | 1.60 | 0.00 | 91 | 1008.8 |
| 20260507115957 | 5 | 230 | 4.8 | 12.9 | 0.00 | 1.60 | 0.00 | 88 | 1008.7 |
| 20260507115453 | 5 | 267 | 3.2 | 14.5 | 0.00 | 1.63 | 0.00 | 91 | 1008.7 |
| 20260507114953 | 5 | 307 | 3.2 | 14.5 | 0.00 | 1.65 | 0.00 | 91 | 1008.5 |
| 20260507114453 | 5 | 298 | 3.2 | 12.9 | 0.00 | 1.65 | 0.00 | 93 | 1008.4 |
| 20260507113953 | 5 | 289 | 1.6 | 8.0 | 0.00 | 1.68 | 0.00 | 94 | 1008.2 |
| 20260507113453 | 5 | 281 | 3.2 | 9.7 | 0.00 | 1.70 | 0.00 | 94 | 1008.2 |
| 20260507112953 | 5 | 236 | 3.2 | 9.7 | 0.00 | 1.73 | 0.00 | 95 | 1008.2 |
| 20260507111951 | 5 | 288 | 3.2 | 11.3 | 0.00 | 1.75 | 0.00 | 98 | 1008.4 |
| 20260507111451 | 5 | 281 | 1.6 | 9.7 | 0.00 | 1.75 | 0.00 | 99 | 1008.2 |
| 20260507110944 | 5 | 238 | 3.2 | 9.7 | 0.00 | 1.75 | 0.00 | 99 | 1008.2 |
| 20260507110438 | 5 | 309 | 1.6 | 9.7 | 0.00 | 1.75 | 0.00 | 99 | 1008.2 |
| 20260507105932 | 5 | 333 | 1.6 | 4.8 | 0.00 | 1.75 | 0.00 | 99 | 1008.1 |
| 20260507105427 | 5 | 250 | 0.0 | 3.2 | 0.00 | 1.75 | 0.00 | 99 | 1008.0 |
| 20260507104922 | 5 | 239 | 0.0 | 3.2 | 0.00 | 1.78 | 0.00 | 99 | 1007.9 |
| 20260507104415 | 5 | 210 | 0.0 | 3.2 | 0.00 | 1.78 | 0.00 | 99 | 1007.9 |
| 20260507103403 | 5 | 241 | 0.0 | 0.0 | 0.00 | 1.78 | 0.00 | 99 | 1007.7 |
| 20260507102856 | 5 | 241 | 0.0 | 0.0 | 0.00 | 1.78 | 0.00 | 99 | 1007.7 |
| 20260507102351 | 5 | 241 | 0.0 | 1.6 | 0.00 | 1.78 | 0.00 | 99 | 1007.8 |
| 20260507101844 | 5 | 241 | 0.0 | 1.6 | 0.00 | 1.78 | 0.00 | 99 | 1007.8 |
| 20260507101339 | 5 | 241 | 0.0 | 1.6 | 0.00 | 1.78 | 0.00 | 100 | 1007.8 |
| 20260507100833 | 5 | 241 | 0.0 | 1.6 | 0.00 | 1.78 | 0.00 | 100 | 1007.9 |
| 20260507100327 | 5 | 226 | 0.0 | 1.6 | 0.00 | 1.78 | 0.00 | 100 | 1007.9 |
| 20260507095821 | 5 | 229 | 0.0 | 3.2 | 0.00 | 1.83 | 0.00 | 100 | 1007.8 |
| 20260507095314 | 5 | 253 | 0.0 | 3.2 | 0.00 | 1.83 | 0.00 | 100 | 1007.8 |
| 20260507094809 | 5 | 216 | 0.0 | 1.6 | 0.00 | 1.83 | 0.00 | 99 | 1007.8 |
| 20260507094303 | 5 | 243 | 0.0 | 0.0 | 0.00 | 1.85 | 0.00 | 99 | 1007.8 |
| 20260507093756 | 5 | 243 | 0.0 | 0.0 | 0.00 | 1.85 | 0.00 | 99 | 1007.7 |
| 20260507093251 | 5 | 243 | 0.0 | 0.0 | 0.00 | 1.85 | 0.00 | 100 | 1007.7 |
| 20260507092744 | 5 | 244 | 1.6 | 4.8 | 0.00 | 1.85 | 0.00 | 100 | 1007.7 |
| 20260507092238 | 5 | 243 | 1.6 | 4.8 | 0.00 | 1.85 | 0.00 | 100 | 1007.7 |
| 20260507091227 | 4 | 335 | 0.0 | 0.0 | 0.00 | 1.88 | 0.00 | 99 | 1007.7 |
| 20260507090721 | 4 | 335 | 0.0 | 1.6 | 0.00 | 1.88 | 0.00 | 99 | 1007.8 |
| 20260507090221 | 4 | 335 | 0.0 | 1.6 | 0.00 | 1.88 | 0.00 | 99 | 1007.7 |
| 20260507085720 | 4 | 245 | 0.0 | 1.6 | 0.00 | 1.88 | 0.00 | 99 | 1007.7 |
| 20260507084723 | 5 | 244 | 1.6 | 4.8 | 0.00 | 1.88 | 0.00 | 99 | 1007.7 |
| 20260507084217 | 5 | 229 | 1.6 | 3.2 | 0.00 | 1.88 | 0.00 | 100 | 1007.6 |
| 20260507083715 | 5 | 236 | 3.2 | 6.4 | 0.00 | 1.91 | 0.00 | 100 | 1007.8 |
| 20260507083213 | 5 | 212 | 3.2 | 6.4 | 0.00 | 1.91 | 0.00 | 100 | 1008.1 |
| 20260507082711 | 5 | 200 | 1.6 | 3.2 | 0.00 | 1.91 | 0.00 | 100 | 1008.0 |
| 20260507082209 | 4 | 202 | 1.6 | 4.8 | 0.00 | 1.91 | 0.00 | 100 | 1008.0 |
| 20260507081709 | 4 | 260 | 1.6 | 4.8 | 0.00 | 1.91 | 0.00 | 100 | 1008.2 |
| 20260507081209 | 4 | 210 | 1.6 | 3.2 | 0.00 | 1.93 | 0.00 | 100 | 1008.1 |
| 20260507080209 | 4 | 143 | 0.0 | 1.6 | 0.00 | 1.98 | 0.00 | 99 | 1008.1 |
| 20260507075708 | 4 | 143 | 0.0 | 1.6 | 0.00 | 2.03 | 0.00 | 99 | 1008.2 |
| 20260507075205 | 4 | 143 | 0.0 | 1.6 | 0.00 | 2.03 | 0.00 | 99 | 1008.2 |
| 20260507074703 | 4 | 149 | 0.0 | 1.6 | 0.00 | 2.03 | 0.00 | 99 | 1008.3 |
| 20260507073703 | 4 | 249 | 0.0 | 1.6 | 0.00 | 2.06 | 0.00 | 99 | 1008.4 |
| 20260507073157 | 4 | 249 | 0.0 | 1.6 | 0.00 | 2.06 | 0.00 | 99 | 1008.3 |
| 20260507072656 | 3 | 292 | 0.0 | 3.2 | 0.00 | 2.06 | 0.00 | 99 | 1008.2 |
| 20260507072152 | 3 | 309 | 0.0 | 3.2 | 0.00 | 2.06 | 0.00 | 99 | 1008.2 |
| 20260507071647 | 3 | 271 | 0.0 | 1.6 | 0.00 | 2.08 | 0.00 | 99 | 1008.0 |
| 20260507071140 | 4 | 236 | 0.0 | 1.6 | 0.00 | 2.08 | 0.00 | 99 | 1007.8 |
| 20260507070635 | 3 | 236 | 0.0 | 0.0 | 0.00 | 2.08 | 0.00 | 99 | 1007.8 |
| 20260507070128 | 3 | 236 | 0.0 | 0.0 | 0.00 | 2.08 | 0.00 | 99 | 1007.8 |
| 20260507065623 | 3 | 236 | 0.0 | 0.0 | 0.00 | 2.11 | 0.00 | 99 | 1007.7 |
| 20260507065116 | 3 | 235 | 0.0 | 0.0 | 0.00 | 2.11 | 0.00 | 99 | 1007.8 |
| 20260507064611 | 3 | 236 | 0.0 | 0.0 | 0.00 | 2.13 | 0.00 | 99 | 1007.7 |
| 20260507063558 | 4 | 236 | 0.0 | 1.6 | 0.00 | 2.13 | 0.00 | 99 | 1007.7 |
| 20260507063053 | 4 | 236 | 0.0 | 1.6 | 0.00 | 2.13 | 0.00 | 99 | 1007.8 |
| 20260507062546 | 4 | 236 | 0.0 | 6.4 | 0.00 | 2.13 | 0.00 | 99 | 1007.8 |
| 20260507061029 | 4 | 229 | 1.6 | 6.4 | 0.00 | 2.16 | 0.00 | 99 | 1007.9 |
| 20260507060522 | 3 | 226 | 0.0 | 3.2 | 0.00 | 2.16 | 0.00 | 99 | 1008.0 |
| 20260507055510 | 4 | 193 | 1.6 | 3.2 | 0.00 | 2.18 | 0.00 | 99 | 1008.0 |
| 20260507055005 | 4 | 198 | 0.0 | 3.2 | 0.00 | 2.21 | 0.00 | 99 | 1007.8 |
| 20260507053953 | 4 | 225 | 0.0 | 1.6 | 0.00 | 2.21 | 0.00 | 99 | 1008.2 |
| 20260507053446 | 3 | 225 | 0.0 | 0.0 | 0.00 | 2.21 | 0.00 | 99 | 1008.2 |
| 20260507052941 | 4 | 225 | 0.0 | 1.6 | 0.00 | 2.21 | 0.00 | 99 | 1008.3 |
| 20260507051929 | 4 | 225 | 0.0 | 3.2 | 0.00 | 2.24 | 0.00 | 99 | 1008.2 |
| 20260507051422 | 4 | 225 | 1.6 | 3.2 | 0.00 | 2.26 | 0.00 | 99 | 1008.3 |
| 20260507045905 | 4 | 224 | 1.6 | 3.2 | 0.00 | 2.34 | 0.00 | 99 | 1008.8 |
| 20260507045359 | 4 | 161 | 1.6 | 3.2 | 0.00 | 2.36 | 0.00 | 99 | 1008.8 |
| 20260507044852 | 4 | 169 | 0.0 | 1.6 | 0.00 | 2.39 | 0.00 | 99 | 1008.8 |
| 20260507044347 | 4 | 169 | 0.0 | 1.6 | 0.00 | 2.44 | 0.00 | 99 | 1008.9 |
| 20260507043335 | 5 | 169 | 0.0 | 3.2 | 0.00 | 2.46 | 0.00 | 99 | 1008.9 |
| 20260507042828 | 5 | 169 | 1.6 | 3.2 | 0.00 | 2.49 | 0.00 | 99 | 1008.9 |
| 20260507042323 | 5 | 169 | 1.6 | 3.2 | 0.00 | 2.49 | 0.00 | 99 | 1008.8 |
| 20260507041816 | 5 | 169 | 0.0 | 1.6 | 0.00 | 2.51 | 0.00 | 99 | 1008.8 |
| 20260507041311 | 5 | 169 | 0.0 | 1.6 | 0.00 | 2.51 | 0.00 | 99 | 1008.9 |
| 20260507040804 | 5 | 169 | 0.0 | 1.6 | 0.00 | 2.54 | 0.00 | 99 | 1008.9 |
| 20260507040259 | 5 | 211 | 0.0 | 1.6 | 0.00 | 2.54 | 0.00 | 99 | 1009.0 |
| 20260507035247 | 5 | 164 | 0.0 | 3.2 | 0.00 | 2.59 | 2.54 | 98 | 1008.9 |
| 20260507034235 | 5 | 164 | 1.6 | 3.2 | 0.00 | 2.59 | 2.54 | 99 | 1008.8 |
| 20260507033730 | 5 | 165 | 1.6 | 3.2 | 0.00 | 2.59 | 2.54 | 99 | 1008.9 |
| 20260507033223 | 5 | 165 | 1.6 | 1.6 | 0.00 | 2.59 | 2.54 | 99 | 1008.9 |
| 20260507031706 | 5 | 174 | 0.0 | 0.0 | 0.00 | 2.69 | 2.54 | 98 | 1009.0 |
| 20260507031159 | 6 | 174 | 1.6 | 4.8 | 0.00 | 2.74 | 2.54 | 98 | 1009.1 |
| 20260507030654 | 6 | 174 | 1.6 | 4.8 | 0.00 | 2.77 | 2.54 | 99 | 1009.1 |
| 20260507030147 | 6 | 199 | 0.0 | 3.2 | 0.00 | 2.79 | 2.54 | 99 | 1009.1 |
| 20260507025642 | 6 | 253 | 0.0 | 1.6 | 0.00 | 2.79 | 2.54 | 99 | 1009.2 |
| 20260507025135 | 6 | 248 | 0.0 | 1.6 | 0.00 | 2.79 | 2.54 | 99 | 1009.2 |
| 20260507024629 | 6 | 285 | 0.0 | 1.6 | 0.00 | 2.79 | 2.54 | 99 | 1009.2 |
| 20260507024123 | 6 | 237 | 0.0 | 1.6 | 0.00 | 2.79 | 2.54 | 99 | 1009.1 |
| 20260507023618 | 6 | 237 | 0.0 | 1.6 | 0.00 | 2.79 | 2.54 | 99 | 1009.1 |
| 20260507023111 | 6 | 203 | 0.0 | 0.0 | 0.00 | 2.79 | 2.54 | 99 | 1009.1 |
| 20260507022605 | 6 | 202 | 0.0 | 3.2 | 0.00 | 2.79 | 2.54 | 99 | 1009.1 |
| 20260507022100 | 6 | 202 | 0.0 | 3.2 | 0.00 | 2.82 | 2.54 | 99 | 1009.2 |
| 20260507021553 | 6 | 202 | 0.0 | 3.2 | 0.00 | 2.82 | 2.54 | 99 | 1009.0 |
| 20260507021048 | 6 | 202 | 1.6 | 3.2 | 0.00 | 2.82 | 2.54 | 98 | 1008.9 |
| 20260507020541 | 6 | 219 | 0.0 | 3.2 | 0.00 | 2.84 | 2.54 | 98 | 1008.9 |
| 20260507020036 | 6 | 238 | 0.0 | 3.2 | 0.00 | 2.90 | 2.54 | 99 | 1009.1 |
| 20260507015529 | 6 | 209 | 1.6 | 3.2 | 0.00 | 2.95 | 2.54 | 99 | 1009.2 |
| 20260507015024 | 6 | 285 | 1.6 | 3.2 | 0.00 | 2.95 | 2.54 | 98 | 1009.2 |
| 20260507013506 | 6 | 302 | 0.0 | 4.8 | 0.00 | 2.95 | 2.54 | 98 | 1009.3 |
| 20260507013000 | 6 | 242 | 1.6 | 4.8 | 0.00 | 2.95 | 2.54 | 98 | 1009.3 |
| 20260507012453 | 6 | 266 | 1.6 | 4.8 | 0.00 | 2.95 | 2.54 | 98 | 1009.3 |
| 20260507011948 | 6 | 307 | 1.6 | 4.8 | 0.00 | 2.95 | 2.54 | 98 | 1009.3 |
| 20260507011441 | 6 | 225 | 0.0 | 1.6 | 0.00 | 2.95 | 2.54 | 98 | 1009.2 |
| 20260507010936 | 6 | 236 | 0.0 | 3.2 | 0.00 | 2.95 | 2.54 | 98 | 1009.1 |
| 20260507010429 | 6 | 312 | 1.6 | 3.2 | 0.00 | 2.95 | 2.54 | 98 | 1009.1 |
| 20260507005924 | 6 | 287 | 1.6 | 4.8 | 0.03 | 2.95 | 2.54 | 98 | 1009.0 |
| 20260507004911 | 6 | 285 | 1.6 | 4.8 | 0.03 | 2.95 | 2.54 | 98 | 1008.9 |
| 20260507003859 | 6 | 318 | 0.0 | 4.8 | 0.03 | 2.95 | 2.54 | 98 | 1008.9 |
| 20260507003354 | 6 | 346 | 0.0 | 1.6 | 0.03 | 2.95 | 2.54 | 98 | 1008.8 |
| 20260507002848 | 6 | 270 | 0.0 | 1.6 | 0.03 | 2.95 | 2.54 | 98 | 1008.7 |
| 20260507002341 | 6 | 303 | 0.0 | 1.6 | 0.03 | 2.95 | 2.54 | 98 | 1008.7 |
| 20260507001836 | 6 | 302 | 0.0 | 1.6 | 0.03 | 2.95 | 2.54 | 98 | 1008.6 |
| 20260507000823 | 6 | 40 | 0.0 | 1.6 | 0.05 | 2.95 | 2.54 | 98 | 1008.4 |
| 20260507000318 | 6 | 39 | 0.0 | 1.6 | 0.08 | 2.95 | 2.54 | 98 | 1008.3 |
| 20260506235307 | 6 | 40 | 0.0 | 1.6 | 0.05 | 2.92 | 2.51 | 98 | 1008.3 |
| 20260506234759 | 6 | 40 | 0.0 | 0.0 | 0.05 | 2.92 | 2.51 | 98 | 1008.1 |
| 20260506233241 | 6 | 40 | 0.0 | 1.6 | 0.05 | 2.92 | 2.51 | 98 | 1008.0 |
| 20260506232735 | 6 | 39 | 0.0 | 1.6 | 0.05 | 2.92 | 2.51 | 98 | 1007.9 |
| 20260506232230 | 6 | 126 | 0.0 | 1.6 | 0.05 | 2.92 | 2.51 | 98 | 1007.8 |
| 20260506231723 | 6 | 126 | 0.0 | 1.6 | 0.05 | 2.92 | 2.51 | 98 | 1007.8 |
| 20260506231218 | 6 | 126 | 0.0 | 1.6 | 0.03 | 2.90 | 2.49 | 98 | 1007.9 |
| 20260506230712 | 6 | 127 | 0.0 | 0.0 | 0.03 | 2.90 | 2.49 | 98 | 1007.9 |
| 20260506230205 | 6 | 127 | 0.0 | 1.6 | 0.00 | 2.87 | 2.46 | 98 | 1007.9 |
| 20260506225700 | 6 | 127 | 0.0 | 1.6 | 0.00 | 2.87 | 2.46 | 98 | 1008.1 |
| 20260506225153 | 6 | 127 | 0.0 | 1.6 | 0.00 | 2.87 | 2.46 | 98 | 1008.2 |
| 20260506224648 | 6 | 81 | 0.0 | 1.6 | 0.00 | 2.87 | 2.46 | 98 | 1008.2 |
| 20260506224141 | 6 | 81 | 0.0 | 3.2 | 0.00 | 2.87 | 2.46 | 98 | 1008.2 |
| 20260506223636 | 6 | 85 | 0.0 | 3.2 | 0.00 | 2.87 | 2.46 | 98 | 1008.0 |
| 20260506223130 | 6 | 97 | 0.0 | 3.2 | 0.00 | 2.87 | 2.46 | 98 | 1007.9 |
| 20260506221612 | 6 | 42 | 1.6 | 4.8 | 0.00 | 2.87 | 2.46 | 98 | 1008.2 |
| 20260506221105 | 6 | 67 | 1.6 | 4.8 | 0.00 | 2.87 | 2.46 | 98 | 1008.0 |
| 20260506220600 | 6 | 78 | 1.6 | 6.4 | 0.03 | 2.87 | 2.46 | 98 | 1008.0 |
| 20260506220053 | 6 | 32 | 0.0 | 6.4 | 0.03 | 2.87 | 2.46 | 98 | 1008.1 |
| 20260506215547 | 6 | 32 | 1.6 | 8.0 | 0.03 | 2.87 | 2.46 | 98 | 1008.1 |
| 20260506215041 | 6 | 23 | 3.2 | 8.0 | 0.05 | 2.87 | 2.46 | 97 | 1008.0 |
| 20260506214029 | 7 | 29 | 1.6 | 3.2 | 0.08 | 2.87 | 2.46 | 98 | 1008.0 |
| 20260506213524 | 7 | 37 | 1.6 | 3.2 | 0.10 | 2.87 | 2.46 | 98 | 1008.0 |
| 20260506213017 | 6 | 44 | 1.6 | 4.8 | 0.13 | 2.87 | 2.46 | 97 | 1007.8 |
| 20260506212512 | 7 | 349 | 3.2 | 6.4 | 0.13 | 2.87 | 2.46 | 98 | 1007.7 |
| 20260506212005 | 7 | 345 | 1.6 | 6.4 | 0.15 | 2.87 | 2.46 | 98 | 1007.5 |
| 20260506211500 | 7 | 21 | 0.0 | 6.4 | 0.15 | 2.87 | 2.46 | 98 | 1007.5 |
| 20260506210447 | 6 | 277 | 0.0 | 4.8 | 0.15 | 2.84 | 2.44 | 98 | 1008.0 |
| 20260506205942 | 6 | 335 | 0.0 | 4.8 | 0.15 | 2.84 | 2.44 | 98 | 1008.1 |
| 20260506205435 | 6 | 68 | 1.6 | 3.2 | 0.13 | 2.82 | 2.44 | 98 | 1008.1 |
| 20260506204930 | 6 | 359 | 1.6 | 3.2 | 0.15 | 2.82 | 2.41 | 98 | 1008.0 |
| 20260506203918 | 6 | 304 | 0.0 | 1.6 | 0.13 | 2.79 | 2.39 | 98 | 1007.8 |
| 20260506203412 | 6 | 68 | 0.0 | 1.6 | 0.10 | 2.77 | 2.36 | 98 | 1007.9 |
| 20260506202359 | 6 | 35 | 1.6 | 6.4 | 0.08 | 2.77 | 2.34 | 97 | 1007.8 |
| 20260506201347 | 6 | 36 | 3.2 | 9.7 | 0.05 | 2.84 | 2.29 | 97 | 1007.7 |
| 20260506200842 | 6 | 34 | 1.6 | 4.8 | 0.05 | 2.84 | 2.29 | 97 | 1007.7 |
| 20260506200335 | 6 | 39 | 1.6 | 6.4 | 0.08 | 2.84 | 2.29 | 97 | 1007.6 |
| 20260506195830 | 6 | 25 | 3.2 | 6.4 | 0.08 | 2.84 | 2.29 | 97 | 1007.7 |
| 20260506195324 | 6 | 25 | 3.2 | 4.8 | 0.08 | 2.82 | 2.26 | 97 | 1007.6 |
| 20260506194817 | 6 | 42 | 3.2 | 8.0 | 0.08 | 2.82 | 2.26 | 98 | 1007.5 |
| 20260506194312 | 6 | 18 | 3.2 | 8.0 | 0.08 | 2.82 | 2.26 | 97 | 1007.4 |
| 20260506193805 | 6 | 345 | 1.6 | 6.4 | 0.10 | 2.82 | 2.26 | 98 | 1007.4 |
| 20260506193300 | 6 | 19 | 1.6 | 4.8 | 0.10 | 2.82 | 2.26 | 98 | 1007.4 |